Location: Bakhuizen
(52.8696°N, 5.4575°E)
Time: 09:13:36
(UTC+00:00)

Cosmos 2366 rocket - Pass Details

Date: 11 May 2021
Orbit: 955 x 997 km, 82.9° (Epoch: 15 June)

Event Time Altitude Azimuth Distance (km) Brightness Sun altitude
Rises 21:43:34 0° 351° (N) 3,652 8.5 -15.1°
Reaches altitude 10° 21:46:11 10° 357° (N) 2,705 7.4 -15.2°
Maximum altitude 21:52:09 48° 72° (ENE) 1,243 4.5 -15.6°
Enters shadow 21:55:59 22° 136° (SE) 1,988 5.1 -15.9°
